User: anonymous   Login
Location: Unspecified
(0.0000°N, 0.0000°E)
Time: 22:12:43
(UTC+01:00)
Language:

ATLAS 2AS CENTAUR R/B - Orbit

View from above orbital plane
View from above orbital plane
View from above satellite
View from above satellite

Ground track
Ground track

The orbit data is extracted from the following two-line orbital elements,

1 28096U 03054B   16028.71887473 0.00000000  00000-0  00000-0 0    02
2 28096  63.6684 255.4145 0265000 278.2620  81.7380 13.40800631    09
Epoch (UTC): 28 January 2016 17:15:10
Eccentricity: 0.0265000
inclination: 63.6684°
perigee height: 908 km
apogee height: 1304 km
right ascension of ascending node: 255.4145°
argument of perigee: 278.2620°
revolutions per day: 13.40800631
mean anomaly at epoch: 81.7380°
orbit number at epoch: 0

The dashed part of the orbit path shows where the satellite is in the earth's shadow,  

DLR